Location: *
(51.0833°N, 14.7333°E)
Time: 21:14:47
(UTC+00:00)

Daily predictions for brighter satellites

Satellite Brightness Start Highest point End
(mag) Time Altitude Azimuth Time Altitude Azimuth Time Altitude Azimuth
Cosmos 2322 3.8 17:37:53 10° NNW 17:43:40 74° ENE 17:49:23 10° SE
Cosmos 2184 Rocket 4.1 17:39:04 10° N 17:45:14 60° ENE 17:51:24 10° SSE
Iridium 2 4.1 17:41:34 10° SSW 17:45:20 68° W 17:49:09 10° N
IRS-1A Rocket 4.3 17:41:03 10° SSE 17:46:46 74° ENE 17:52:25 10° NNW
Cosmos 2219 Rocket 2.5 17:41:49 10° NNW 17:47:15 49° NE 17:52:41 10° SE
Cosmos 1975 2.8 17:43:58 10° S 17:47:53 59° E 17:51:50 10° NNE
MONITOR-E 4.0 17:45:42 10° SSE 17:48:27 53° ENE 17:51:13 10° N
Meteor 1-21 4.3 17:43:01 10° N 17:48:36 64° ENE 17:54:11 10° SSE
Cosmos 1378 3.1 17:46:43 10° N 17:50:28 66° ENE 17:54:13 10° SSE
USA 32 4.0 17:46:06 10° N 17:51:22 76° E 17:56:36 10° S
CZ-2D R/B 3.4 17:47:36 10° S 17:51:25 81° W 17:55:14 10° NNW
CZ-2C R/B 4.5 17:48:59 10° ESE 17:52:55 22° NE 17:57:00 10° N
NOAA 11 4.3 17:48:00 10° SSE 17:53:32 89° ENE 17:59:04 10° NNW
YAOGAN 6 4.5 17:51:06 10° SSW 17:54:29 36° W 17:57:55 10° NNW
Cosmos 1743 2.9 17:52:35 10° SSW 17:56:26 81° WNW 18:00:20 10° N
USA 186 2.6 17:53:49 10° SE 17:56:55 36° ENE 18:00:05 10° N
Cosmos 2360 Rocket 2.8 17:51:40 10° NW 17:57:15 61° WSW 18:02:48 10° SSE
Cosmos 1461 4.2 17:54:34 10° SSE 17:57:19 18° ESE 18:00:05 10° ENE
Resurs 01 Rocket 3.1 17:55:09 10° ESE 17:58:20 20° ENE 18:01:31 10° NNE
Cosmos 389 Rocket 4.2 17:57:39 10° NNE 17:59:53 16° ENE 18:01:56 11° ESE
ASTEX 1 3.9 18:00:09 10° NNE 18:04:43 38° E 18:09:15 10° SSE
Meteor 1-4 Rocket 4.4 18:02:55 10° NNE 18:05:05 15° ENE 18:06:50 11° E
GP-B 3.1 18:01:58 10° N 18:06:25 64° E 18:10:48 10° S
Okean 2 Rocket 3.3 18:02:46 10° SSW 18:07:14 78° W 18:11:46 10° N
Cosmos 1842 3.3 18:03:36 10° N 18:07:35 88° ENE 18:11:33 10° S
COSMOS 2455 3.1 18:03:31 10° NW 18:09:34 76° WSW 18:15:34 10° SSE
Okean 1 Rocket 3.6 18:06:01 10° SSE 18:09:57 35° E 18:13:55 10° NNE
CZ-4 R/B 4.2 18:09:06 10° SW 18:12:06 21° W 18:15:09 10° NW
Meteor 2-9 Rocket 4.2 18:08:07 10° S 18:13:50 67° E 18:19:27 10° NNE
COSMOS 2487 4.0 18:11:55 10° SW 18:15:13 40° WNW 18:18:33 10° N
Cosmos 1833 4.2 18:10:33 10° SSW 18:16:15 79° ESE 18:21:57 10° NNE
Timation 2 Rocket 4.2 18:11:10 10° S 18:17:33 53° ESE 18:23:41 10° NE
Cosmos 2327 Rocket 4.5 18:12:32 10° N 18:18:53 79° E 18:25:04 10° SSE
Ariane Rocket 3.8 18:14:03 10° S 18:19:00 56° WSW 18:24:01 10° NNW
CZ-2C R/B 3.7 18:19:06 10° NNE 18:23:32 54° E 18:27:53 10° S
Cosmos 2297 Rocket 3.9 18:24:38 13° E 18:24:38 13° E 18:26:21 10° ENE
Nadezhda 1 Rocket 3.9 18:18:40 10° S 18:24:38 62° E 18:30:38 10° NNE
ERBS 3.9 18:22:04 10° WNW 18:25:06 29° N 18:27:56 11° ENE
Cosmos 407 Rocket 4.0 18:23:34 10° NNW 18:28:27 41° ENE 18:31:58 17° ESE
SPOT 3 Rocket 3.5 18:24:26 10° SSE 18:29:35 78° ENE 18:34:45 10° NNW
NOSS 3-4 (A) 3.8 18:24:36 10° NW 18:31:28 75° NE 18:37:42 16° SE
NOSS 3-4 (C) 3.8 18:24:42 10° NW 18:31:33 74° NE 18:37:47 16° SE
Cosmos 1536 Rocket 4.4 18:27:32 10° NNW 18:31:46 52° W 18:35:57 10° S
Cosmos 2333 Rocket 2.3 18:26:07 10° NNW 18:31:51 87° WSW 18:37:34 10° SSE
Cosmos 405 Rocket 4.2 18:32:18 17° E 18:32:18 17° E 18:34:33 10° NE
ARGOS 3.2 18:27:28 10° SSE 18:32:44 60° ENE 18:38:03 10° N
Okean 1-7 Rocket 4.1 18:31:56 10° N 18:36:06 38° ENE 18:38:46 19° SE
Cosmos 1295 Rocket 4.5 18:30:05 10° N 18:36:18 66° ENE 18:42:24 10° SSE
Cosmos 1025 Rocket 4.0 18:38:24 10° NNW 18:42:32 47° W 18:46:37 10° SSW
Cosmos 1892 Rocket 4.0 18:38:17 10° N 18:42:35 43° ENE 18:45:07 21° SE
Cosmos 614 Rocket 4.3 18:37:30 10° NNW 18:42:37 49° ENE 18:45:50 21° SE
NOSS 3-3 (A) 3.9 18:36:44 10° SW 18:42:44 77° SE 18:49:32 10° NE
NOSS 3-3 (C) 3.9 18:36:50 10° SW 18:42:50 76° SE 18:49:38 10° NE
Meteor 2-15 Rocket 4.4 18:38:24 10° S 18:44:32 85° E 18:50:45 10° NNE
Aureole 1 Rocket 4.1 18:40:50 10° NNW 18:46:37 57° WSW 18:50:57 10° S
Cosmos 2341 Rocket 4.0 18:42:35 10° N 18:48:52 67° ENE 18:54:49 11° SSE
NOSS 0 Rocket 3.9 18:42:48 10° NNW 18:49:03 81° ENE 18:53:46 18° SE
Cosmos 2237 Rocket 2.4 18:44:06 10° NNW 18:49:45 59° NE 18:53:17 23° SE
Cosmos 1441 Rocket 3.1 18:49:10 10° SSW 18:53:01 89° NW 18:56:49 10° NNE
SJ-6B 3.4 18:49:20 10° S 18:53:26 61° W 18:57:31 10° NNW
BREEZE-M DEB (TANK) 3.5 18:52:21 10° W 18:56:30 90° NNW 19:03:23 18° E
Spot 2 Rocket 4.0 18:54:17 25° ESE 18:56:36 40° ENE 19:01:18 10° N
Cosmos 2181 Rocket 4.3 18:51:15 10° SSE 18:57:07 46° E 19:03:07 10° NNE
USA 234 3.8 18:52:00 12° ENE 18:57:59 54° N 19:04:21 10° WNW
Cosmos 1980 3.7 18:52:27 10° NNW 18:58:08 70° ENE 19:01:30 25° SE
In-Cosmos 22 4.0 18:53:45 10° N 18:59:04 67° ENE 19:02:48 20° SSE
CZ-4C R/B 4.1 18:55:33 10° WNW 19:00:39 31° NNW 19:06:36 10° NE
Cosmos 1544 3.5 18:57:16 10° SSW 19:00:49 64° WNW 19:04:25 10° N
ERS-1 Rocket 4.3 19:00:20 21° E 19:01:37 23° ENE 19:05:31 10° N
H-2A R/B 2.0 18:57:11 11° SSE 19:01:59 79° WSW 19:07:02 10° NNW
MetOp-A 4.1 18:58:13 20° SSE 19:02:00 69° ENE 19:07:21 10° N
SL-08 RB Rocket 3.7 18:59:38 20° SSE 19:02:51 78° ENE 19:07:34 10° NNW
Cosmos 1371 Rocket 4.5 18:59:14 10° S 19:04:05 38° ESE 19:09:00 10° NE
Cosmos 1140 Rocket 3.7 18:59:13 10° NNW 19:04:19 52° ENE 19:06:32 31° ESE
Cosmos 1707 3.2 19:05:03 10° NNW 19:08:55 60° W 19:12:03 15° S
Cosmos 2218 Rocket 4.1 19:07:16 10° N 19:13:40 63° ENE 19:17:21 26° SSE
Cosmos 1674 3.3 19:10:57 10° N 19:14:23 37° ENE 19:14:23 37° ENE
ATLAS 2AS CENTAUR R/B 3.4 19:07:39 10° NW 19:15:10 57° WSW 19:20:32 18° SSE
SL-16 R/B 2.8 19:11:53 10° NNW 19:17:17 42° NE 19:19:18 31° E
Cosmos 676 Rocket 4.2 19:12:27 10° NNW 19:17:40 55° ENE 19:19:28 37° ESE
ADEOS Rocket 3.4 19:10:44 10° NNE 19:17:51 78° ESE 19:25:31 10° S
SL-8 R/B 3.9 19:14:09 10° WSW 19:18:46 49° SSE 19:19:44 42° SE
KORONAS-FOTON 4.4 19:18:38 10° N 19:22:00 40° ENE 19:22:00 40° ENE
COSMOS 2428 3.9 19:17:17 10° NW 19:22:33 39° WSW 19:27:34 11° S
Cosmos 2366 rocket 4.0 19:16:35 10° N 19:22:57 69° ENE 19:26:18 29° SSE
Meteor 1-15 Rocket 4.2 19:21:27 10° S 19:27:12 85° E 19:33:05 10° NNE
Cosmos 1766 4.4 19:28:59 29° NE 19:28:59 29° NE 19:31:24 10° NNE
Cosmos 1544 Rocket 3.7 19:28:08 50° ESE 19:28:21 50° E 19:32:42 10° NNE
Cosmos 1455 Rocket 3.0 19:28:37 50° SE 19:29:30 62° E 19:33:55 10° NNE
Cosmos 864 Rocket 4.4 19:24:29 10° N 19:30:43 74° ENE 19:33:43 33° SSE
Cosmos 2219 Rocket 3.5 19:26:04 10° NW 19:31:05 35° WSW 19:35:48 11° S
CZ-2C R/B 3.2 19:29:08 25° S 19:32:11 75° WSW 19:37:40 10° NNW
Resurs 01 Rocket 2.0 19:32:17 29° S 19:34:24 63° WSW 19:38:50 10° NNW
Cosmos 389 Rocket 3.5 19:31:35 10° NNW 19:34:51 42° W 19:35:51 33° SW
Cosmos 1190 Rocket 4.1 19:29:58 10° NNW 19:35:18 74° WSW 19:37:29 36° S
Terra 3.2 19:35:20 23° ENE 19:35:20 23° ENE 19:39:04 10° N
SL-8 Rocket 4.0 19:29:24 10° NNW 19:35:40 82° W 19:39:34 24° S
Cosmos 1461 3.1 19:32:02 10° SW 19:36:01 66° NW 19:39:58 10° NE
BREEZE M DEB (TANK) 2.3 19:35:51 10° W 19:38:26 72° S 19:38:44 67° SE
RESURS DK-1 3.9 19:35:33 10° NNW 19:38:57 24° NE 19:39:02 24° NE
Meteor 1-4 Rocket 3.2 19:36:59 10° NNW 19:40:30 51° W 19:41:04 45° SW
DMSP B5D2-2 4.0 19:40:59 10° NNE 19:46:18 75° ESE 19:48:20 39° S
Cosmos 1626 Rocket 3.5 19:42:10 10° N 19:46:24 66° ENE 19:46:24 66° ENE
Cosmos 1850 Rocket 4.5 19:44:14 10° NNW 19:49:11 43° ENE 19:49:37 42° ENE
Cosmos 1437 Rocket 2.7 19:46:15 10° NNW 19:49:50 75° NNW 19:49:50 75° NNW
Cosmos 2219 3.1 19:45:27 10° SSW 19:51:12 83° ESE 19:57:00 10° NNE
CZ-2C R/B 2.8 19:46:30 10° NNE 19:51:56 54° E 19:52:13 54° ESE
Cosmos 2227 Rocket 2.2 19:55:31 57° ESE 19:55:31 57° ESE 20:01:01 10° NE
SPOT 1/Viking Rocket 3.5 20:00:14 62° E 20:00:35 64° ENE 20:05:43 10° N
ERBS 3.7 19:58:37 10° NW 20:00:58 37° NNW 20:00:58 37° NNW
Cosmos 2056 Rocket 3.5 20:00:16 27° SSW 20:03:21 90° ESE 20:08:48 10° NNE
Cosmos 1602 Rocket 3.6 20:01:02 10° N 20:04:59 70° N 20:04:59 70° N
Meteor 1-24 Rocket 3.8 19:59:47 10° NNW 20:05:29 77° W 20:07:05 49° S
Cosmos 2297 Rocket 2.0 20:06:19 66° SSE 20:06:54 71° ESE 20:12:34 10° NNE
Cosmos 405 Rocket 3.7 20:07:25 40° W 20:07:45 41° WNW 20:11:18 10° N
Meteor 2-5 Rocket 4.4 20:05:45 10° NNW 20:11:21 53° W 20:13:50 32° SSW
Cosmos 1624 Rocket 4.1 20:13:24 28° SW 20:16:10 72° WNW 20:21:23 10° NNE
Cosmos 1741 Rocket 4.1 20:10:57 10° NNW 20:16:13 65° ENE 20:16:13 65° ENE
SPOT 5 3.1 20:23:09 63° NNE 20:23:09 63° NNE 20:27:25 10° NNW
Cosmos 1943 4.2 20:18:31 10° NNW 20:23:44 35° NE 20:24:04 34° NE
Cosmos 1626 4.0 20:22:37 10° N 20:24:25 27° N 20:24:25 27° N
MOS 1 Rocket 4.5 20:23:35 10° NNE 20:26:59 36° NE 20:26:59 36° NE
Cosmos 2237 Rocket 3.7 20:28:40 10° NW 20:33:29 29° WSW 20:35:07 25° SW
ERS-1 Rocket 3.2 20:40:20 63° W 20:40:20 63° W 20:45:02 10° NNW
USA 234 3.3 20:39:20 57° E 20:40:39 73° NNE 20:47:12 10° WNW
Landsat 7 4.4 20:41:54 54° WNW 20:41:54 54° WNW 20:46:05 10° NNW
Cosmos 1934 Rocket 3.9 20:37:19 10° N 20:43:07 69° ENE 20:43:07 69° ENE
CZ-4C R/B 4.1 20:45:31 10° NW 20:51:05 31° NNE 20:55:55 16° ENE
Cosmos 1603 4.0 20:50:38 10° NNW 20:55:34 60° NNE 20:55:34 60° NNE
Cosmos 1452 Rocket 4.4 21:00:00 43° NNE 21:00:00 43° NNE 21:03:30 10° NNE
Nadezhda 3 Rocket 4.0 20:59:21 74° W 20:59:32 74° WNW 21:05:45 10° N
SL-16 R/B 3.0 20:56:07 10° NW 21:01:11 42° WSW 21:01:11 42° WSW
Terra 3.0 21:14:13 40° NW 21:14:13 40° NW 21:17:27 10° NNW
Cosmos 1605 Rocket 4.1 21:08:42 10° N 21:14:27 70° NNE 21:14:27 70° NNE
Cosmos 2082 4.2 21:19:47 57° NNW 21:19:47 57° NNW 21:24:54 10° NNE
Mayak 1.6 21:19:34 10° NNE 21:19:52 12° NNE 21:19:52 12° NNE
CZ-2C R/B 4.3 21:27:13 10° N 21:31:59 30° WNW 21:33:43 25° W
Cosmos 2227 Rocket 3.7 21:37:15 23° W 21:39:50 34° NW 21:44:59 10° NNE
Cosmos 2297 Rocket 3.9 21:48:00 16° W 21:51:29 29° NW 21:56:23 10° NNE
Cosmos 2263 Rocket 3.8 22:14:36 28° NE 22:14:36 28° NE 22:17:14 10° NNE
USA 234 4.4 22:26:42 33° W 22:26:42 33° W 22:30:17 10° WNW
CZ-4C R/B 3.2 22:34:17 10° NW 22:41:00 57° NE 22:41:02 57° NE
SL-16 R/B 4.4 22:47:43 20° ENE 22:49:07 22° NE 22:53:39 10° N
Mayak 1.7 22:55:36 10° N 22:56:26 14° NNW 22:56:26 14° NNW
ATLAS CENTAUR R/B 4.0 23:17:12 22° NNE 23:17:12 22° NNE 23:18:59 10° NE
Cosmos 2082 Rocket 3.8 23:14:04 10° NNW 23:19:02 29° NE 23:19:35 28° NE
Cosmos 1844 Rocket 4.1 23:26:16 33° NE 23:26:16 33° NE 23:29:20 10° NE
USA 267 3.6 23:24:23 10° ENE 23:30:27 62° N 23:30:27 62° N
